Probability
0 0 0 0 0 0 0 0 0 0 0 0 0 0 0 0 0 0 0 0 0 0 0 0 0 1 1 1 0 0 0 0 0 0 0 0 0 0 1 2 2 2 1
0 0 0 0 0 0 0 0 0 0 0 0 0 0 0 0 0 0 0 0 0 0 0 0 0 0 0 0 0 0 0 0 0 0 0 0 0 0 0 1 1 1 1
0 0 1 0 0 0 0 0 0 0 0 0 0 0 0 0 0 0 0 0 0 0 0 0 0 0 0 0 0 0 0 0 0 0 0 0 0 0 0 0 0 0 1
0 0 0 0 0 0 0 0 0 0 0 0 0 0 0 0 0 0 0 0 0 0 0 0 0 0 0 0 0 0 0 0 0 0 0 0 0 0 0 0 0 1 1
0 0 0 0 0 0 0 0 0 0 0 0 0 0 0 0 0 0 0 0 0 0 0 0 0 0 0 0 0 0 0 0 0 0 0 0 0 0 0 0 1 2 2
0 0 0 0 0 0 0 0 0 0 0 0 0 0 0 0 0 0 0 0 0 0 0 0 0 0 0 0 0 0 0 0 0 0 0 0 0 0 0 0 1 3 3
0 0 0 0 0 0 0 0 0 0 0 0 0 0 0 0 0 0 0 0 0 0 0 0 0 0 0 0 0 0 0 0 0 0 0 0 0 0 0 1 2 3 3
0 0 0 0 0 0 0 0 0 0 0 0 0 0 0 0 0 0 0 0 0 0 0 0 0 0 0 0 0 0 0 0 0 0 0 0 0 0 1 2 3 3 3
0 0 0 0 0 0 0 0 0 0 0 0 0 0 0 0 0 0 0 0 0 0 0 0 0 0 0 0 0 0 0 0 0 0 0 0 0 0 1 2 3 3 3
0 0 0 0 0 0 0 0 0 0 0 0 0 0 0 0 0 0 0 0 0 0 0 0 0 0 0 0 0 0 0 0 0 0 0 0 0 0 0 1 1 3 3
0 0 0 0 0 0 0 0 0 0 0 0 0 0 0 0 0 0 0 0 0 0 0 0 0 0 0 0 0 0 0 0 0 0 0 0 0 0 0 0 1 2 3
0 0 0 0 0 0 0 0 0 0 0 0 0 0 0 0 0 0 0 0 0 0 0 0 0 0 0 0 0 0 0 0 0 0 0 0 0 0 0 0 0 1 2
0 0 0 0 0 0 0 0 0 0 0 0 0 0 0 0 0 0 0 0 0 0 0 0 0 0 0 0 0 0 0 0 0 0 0 0 0 0 0 0 0 0 1
0 0 0 0 0 0 0 0 0 0 0 0 0 0 0 0 0 0 0 0 0 0 0 0 0 0 0 0 0 0 0 0 0 0 0 0 0 0 0 0 0 0 0
0 0 0 0 0 0 0 0 0 0 0 0 0 0 0 0 0 0 0 0 0 0 0 0 0 0 0 0 0 0 0 0 0 0 0 0 0 0 0 0 0 0 0
0 0 0 0 0 0 0 0 0 0 0 0 0 0 0 0 0 0 0 0 0 0 0 0 0 0 0 0 0 0 0 0 0 0 0 0 0 0 0 0 0 0 0
0 0 0 0 0 0 0 0 0 0 0 0 0 0 0 0 0 0 0 0 0 0 0 0 0 0 0 0 0 0 0 0 0 0 0 0 0 0 0 0 0 0 0
0 0 0 0 0 0 0 0 0 0 0 0 0 0 0 0 0 0 0 0 0 0 0 0 0 0 0 0 0 0 0 0 0 0 0 0 0 0 0 0 0 0 0
0 0 0 0 0 0 0 0 0 0 0 0 0 0 0 0 0 0 0 0 0 0 0 0 0 0 0 0 0 0 0 0 0 0 0 0 0 0 0 0 0 0 0
0 0 0 0 0 0 0 0 0 0 0 0 0 0 0 0 0 0 0 0 0 0 0 0 0 0 0 0 0 0 0 0 0 0 0 0 0 0 0 0 0 0 0
0 0 0 0 0 0 0 0 0 0 0 0 0 0 0 0 0 0 0 0 0 0 0 0 0 0 0 0 0 0 0 0 0 0 0 0 0 0 0 0 0 0 0
0 0 0 0 0 0 0 0 0 0 0 0 0 0 0 0 0 0 0 0 0 0 0 0 0 0 0 0 0 0 0 0 0 0 0 0 0 0 0 0 0 0 0
0 0 0 0 0 0 0 0 0 0 0 0 0 0 0 0 0 0 0 0 0 0 0 0 0 0 0 0 0 0 0 0 0 0 0 0 0 0 0 0 0 0 0
0 0 0 0 0 0 0 0 0 0 0 0 0 0 0 0 0 0 0 0 0 0 0 0 0 0 0 0 0 0 0 0 0 0 0 0 0 0 0 0 0 0 0
0 0 0 0 0 0 0 0 0 0 0 0 0 0 0 0 0 0 0 0 0 0 0 0 0 0 0 0 0 0 0 0 0 0 0 0 0 0 0 0 0 0 0
0 0 0 0 0 0 0 0 0 0 0 0 0 0 0 0 0 0 0 0 0 0 0 0 0 0 0 0 0 0 0 0 0 0 0 0 0 0 0 0 0 0 0
Wind_Speed
2 2 1 1 1 1 2 2 2 3 4 4 5 5 5 4 4 4 3 9 10 11 11 11 11 11 11 12 12 12 12 13 13 13 12 12 11 10 10 9 9 9 9
3 3 2 2 2 2 2 2 3 4 4 4 5 5 5 4 4 3 3 5 9 11 11 12 12 12 12 12 12 13 13 13 13 13 12 12 12 12 11 10 10 9 9
4 3 3 2 2 2 3 3 4 4 4 4 5 5 4 4 4 4 4 3 4 9 11 12 13 13 13 13 13 13 13 13 13 13 13 13 12 12 12 12 11 11 11
4 4 3 3 3 3 3 3 3 4 4 4 3 3 3 3 4 3 3 4 4 4 8 13 13 13 13 13 13 13 13 13 13 13 14 13 13 13 13 12 12 12 11
4 4 3 2 3 3 3 4 3 3 3 3 3 3 3 3 3 4 4 4 4 4 4 8 13 14 14 14 14 14 14 14 14 14 14 14 13 13 14 13 13 13 13
4 4 3 3 3 3 3 3 4 3 3 3 4 4 3 3 3 3 3 3 3 4 5 5 5 8 13 13 14 13 14 14 13 14 14 14 14 14 13 13 14 14 14
4 4 4 3 3 3 3 4 3 4 2 3 4 4 4 4 4 3 3 3 4 4 4 4 4 4 5 11 13 13 13 13 13 14 14 14 14 14 14 14 14 14 14
4 5 5 3 3 4 4 4 3 3 1 1 3 3 2 4 4 4 3 3 3 3 4 5 4 4 4 3 8 13 13 13 13 14 14 15 15 15 14 14 14 15 15
3 4 5 4 4 4 4 3 3 4 2 0 1 3 4 2 0 3 4 3 3 3 3 3 4 4 4 4 4 9 13 13 13 14 15 15 15 15 15 15 15 15 16
3 3 4 5 4 3 4 3 3 2 3 1 0 1 2 4 4 1 2 3 3 3 3 3 3 3 3 3 5 9 12 13 14 14 15 15 15 16 16 15 15 16 16
2 3 4 4 4 3 3 3 3 2 2 2 1 1 2 2 2 4 2 1 3 3 2 2 2 2 3 3 3 8 12 12 14 14 15 15 16 16 17 16 16 16 16
1 2 3 3 4 3 4 3 3 3 2 2 2 2 2 2 2 3 3 2 1 1 3 2 2 2 2 2 4 9 11 12 13 14 14 15 16 16 16 16 16 16 16
1 2 3 3 3 3 3 3 3 3 2 2 2 2 1 2 3 4 5 3 2 1 2 2 2 1 2 2 3 7 9 11 11 12 13 14 15 15 16 16 16 16 16
3 3 3 3 3 4 4 3 3 2 2 2 2 2 2 1 2 4 4 5 3 1 1 1 1 1 1 1 3 5 5 10 10 11 12 13 14 14 15 15 15 16 16
3 3 4 3 3 3 4 4 2 2 3 2 2 3 2 1 2 2 3 4 5 3 1 1 0 1 0 1 2 3 3 8 9 10 11 11 12 13 14 14 14 15 15
4 4 4 4 3 3 4 4 3 2 3 2 2 3 2 1 2 2 3 2 3 5 3 1 1 1 1 2 4 3 3 8 8 9 10 11 11 12 13 13 13 13 14
4 4 5 5 4 4 4 4 3 3 3 2 2 3 2 2 2 2 2 3 3 3 4 1 1 1 2 2 2 2 2 3 4 8 9 10 10 11 12 12 12 12 12
4 4 4 4 4 4 4 4 4 4 4 3 3 3 3 3 3 2 3 3 3 3 5 4 1 1 1 1 2 2 2 3 3 7 8 9 9 10 10 11 11 11 11
4 3 4 4 5 5 5 4 4 4 4 4 4 4 3 4 3 2 3 3 3 3 3 4 2 1 1 1 2 2 2 2 2 4 6 6 7 8 9 9 9 10 10
4 4 4 4 4 5 5 5 5 4 3 3 3 4 4 5 5 4 3 4 4 4 4 4 3 1 1 1 2 2 1 1 1 2 3 4 5 6 7 8 8 8 9
5 4 4 4 4 4 5 6 5 5 4 3 3 3 3 5 6 5 5 4 5 4 4 3 3 2 1 1 1 1 2 1 1 1 1 1 2 2 3 4 6 7 7
4 4 4 4 4 3 6 9 7 5 5 5 4 2 3 4 6 7 8 8 8 6 5 4 3 3 2 2 2 2 2 1 0 1 2 1 1 1 1 1 3 5 5
4 4 4 4 4 4 8 8 8 5 5 4 4 4 3 3 4 4 5 6 5 6 8 6 5 4 4 4 4 3 2 2 2 1 2 0 1 1 1 1 3 3 4
4 4 4 4 4 4 7 8 8 5 4 3 4 4 4 3 4 5 5 4 3 2 4 4 4 4 4 4 4 4 4 3 1 1 2 1 0 0 1 1 3 2 3
4 4 4 4 4 4 6 8 7 4 3 3 3 3 4 4 6 8 6 5 3 1 2 4 5 4 4 6 6 4 3 3 1 1 0 2 1 0 1 1 2 3 3
4 4 4 4 4 4 6 8 8 4 4 3 2 2 4 5 7 8 6 6 5 3 3 3 2 2 2 3 5 4 4 3 2 1 1 2 1 1 0 1 1 2 2
Wind_Direction
135 123 115 99 89 87 92 86 82 85 82 80 90 93 90 85 74 58 46 67 73 71 71 69 67 65 62 61 58 54 52 50 46 44 40 36 36 35 36 33 33 34 31
137 124 115 101 96 96 92 95 97 94 89 84 82 85 89 89 81 70 48 54 65 67 65 64 63 64 63 61 57 54 53 50 46 44 42 40 38 37 37 35 36 38 40
136 128 119 110 111 100 90 83 84 82 82 78 75 78 81 79 82 72 60 42 43 58 63 61 59 60 61 60 58 56 53 51 48 46 44 42 39 38 38 39 42 44 46
134 125 116 110 108 97 93 94 88 81 75 75 73 70 72 75 79 79 67 55 46 48 54 58 56 56 58 59 58 56 54 52 49 47 46 44 42 42 41 42 45 46 49
126 124 116 115 110 101 101 108 90 98 94 85 81 69 60 64 68 81 76 65 58 57 52 56 56 54 55 55 55 54 52 51 49 48 46 44 42 44 44 44 46 48 50
123 119 119 119 116 106 96 98 100 90 98 106 92 71 50 49 55 65 78 74 65 66 61 56 47 47 50 50 50 50 50 50 49 48 46 44 43 44 45 46 47 49 49
124 125 127 123 121 121 121 117 107 96 88 103 90 62 34 36 45 43 55 70 66 65 64 57 50 43 38 43 44 47 46 48 49 48 47 45 45 46 47 49 51 52 51
136 136 132 130 127 118 110 110 113 111 110 117 118 105 58 18 18 31 40 63 64 64 68 67 59 52 41 29 38 45 43 45 48 49 48 47 48 48 48 51 54 55 54
137 130 137 134 132 129 134 136 134 132 141 117 135 136 138 166 13 6 28 43 53 64 63 63 62 53 50 37 29 38 44 43 48 50 49 49 49 48 48 53 55 56 55
129 134 135 133 137 138 143 153 146 140 135 146 6 89 142 148 141 106 9 20 42 57 57 66 64 53 47 40 44 48 48 44 46 48 48 49 50 49 51 55 59 59 57
131 135 133 132 136 141 147 144 136 137 136 149 157 126 94 83 107 131 136 23 32 30 40 58 68 59 47 44 43 55 54 48 48 48 48 49 51 51 52 56 59 58 58
143 143 139 136 146 151 159 154 146 141 140 131 125 125 138 139 148 135 141 143 100 18 32 37 48 53 51 46 57 63 61 56 53 52 50 50 51 51 53 55 57 57 57
169 178 158 152 154 162 161 147 140 143 139 131 135 132 133 144 147 137 133 135 119 38 34 28 19 32 65 52 54 67 66 64 59 57 55 53 52 52 52 53 55 55 55
187 181 169 167 169 163 156 144 136 150 140 136 135 133 118 128 135 143 145 138 119 54 34 4 4 13 50 68 63 64 68 71 67 63 60 57 55 55 55 54 54 54 54
182 179 171 170 171 164 154 146 141 144 131 132 133 128 120 118 118 129 137 144 143 144 180 241 240 318 69 94 80 74 74 75 73 69 65 61 59 57 57 56 56 55 54
182 174 175 168 170 167 158 145 139 136 124 124 130 121 110 112 106 113 129 129 133 140 153 213 206 204 153 114 103 88 82 84 78 76 71 67 64 61 60 59 58 58 55
179 181 183 172 173 172 161 148 149 145 138 132 133 133 131 125 112 109 109 112 115 122 128 125 73 99 96 104 87 77 78 70 74 81 79 75 70 67 65 63 61 60 56
184 183 177 167 170 168 163 157 159 159 154 156 159 141 143 129 114 114 116 118 121 125 131 133 113 87 97 133 116 107 93 91 83 82 83 81 76 73 69 67 65 61 58
174 172 165 163 168 168 167 164 161 156 154 159 164 158 155 136 127 122 122 122 120 113 111 129 134 99 73 101 90 75 75 47 85 91 86 79 78 76 74 73 69 64 60
157 162 159 160 163 162 163 158 151 150 149 152 158 157 156 153 155 148 136 133 126 116 114 120 121 109 90 91 102 101 70 27 54 76 77 83 77 72 71 74 71 66 62
155 157 148 143 144 152 162 156 151 153 152 146 140 148 162 160 161 157 150 152 140 131 128 127 130 117 120 129 164 167 139 98 27 51 76 55 53 38 35 53 66 68 66
149 142 147 149 151 156 155 156 154 153 152 147 145 146 149 153 147 145 145 151 154 150 153 148 155 164 193 187 165 158 148 128 293 317 111 46 66 38 357 18 57 68 66
150 145 150 148 148 149 150 148 152 150 152 157 159 160 153 144 145 140 129 124 133 149 156 158 164 187 189 195 171 161 164 158 189 211 129 102 18 13 327 15 55 60 55
153 154 155 157 151 160 158 149 144 134 131 145 160 163 156 156 158 151 138 126 123 136 162 161 172 190 190 186 177 171 163 140 90 28 122 142 280 323 354 348 11 36 37
153 150 148 151 149 153 154 147 140 130 126 136 147 149 153 158 164 152 141 140 136 129 120 139 148 149 148 151 145 124 127 127 140 302 108 140 169 115 2 333 344 14 24
159 153 145 153 157 161 162 155 148 139 138 141 133 148 162 165 164 157 151 151 158 179 143 112 96 78 94 129 145 154 161 153 154 214 228 145 152 126 26 311 329 343 354